Date String (YYYY-MM-DD hh:mm:ss) UTC,Instrument flags,absolute air pressure of the measurement (hPa),sample flow rate (lpm),inlet stack bypass flow (lpm),air temperature of the measurement (°C),ambient temperature measured by the external sensor (°C),aerosol sample conditioner tube jacket temperature (°C),OPC LED temperature (°C),internal box temperature (°C),relative humidity of the measurement (%),span deviation,mass concentration of particles derived from Lorenz-Mie calculation of OPC scattering (μg/m³),mass concentration of particles derived from Lorenz-Mie calculation of OPC scattering (μg/m³),mass concentration of particles derived from Lorenz-Mie calculation of OPC scattering (μg/m³)
DateTimeUTC,F1_M11,P_M11,Q1_M11,Q2_M11,T1_M11,T2_M11,T3_M11,T4_M11,T5_M11,U1_M11,ZSPAN_M11,X2_M11,X0_M11,X1_M11
2024-02-01 14:00:00,SystemResetWarning,0824.7,4.99,000.00,023.5,022.8,000.0,031.9,025.2,12.0,0000.0,0002.28,0003.79,0002.06
2024-02-01 14:01:00,SystemResetWarning,0824.8,5.00,000.00,023.5,022.8,000.0,031.9,025.2,12.0,0000.0,0002.29,0003.80,0002.08
2024-02-01 14:02:00,SystemResetWarning,0824.7,5.02,000.00,023.5,022.8,000.0,031.9,025.2,11.9,0000.0,0002.32,0003.85,0002.10
2024-02-01 14:03:00,SystemResetWarning,0824.8,5.00,000.00,023.5,022.8,000.0,031.9,025.2,12.0,0000.0,0002.37,0004.31,0002.14
2024-02-01 14:04:00,SystemResetWarning,0824.8,4.99,000.00,023.5,022.8,000.0,031.9,025.2,12.0,0000.0,0002.42,0004.59,0002.19
2024-02-01 14:05:00,SystemResetWarning,0824.8,4.99,000.00,023.5,022.8,000.0,031.9,025.2,11.9,0000.0,0002.49,0004.70,0002.25
2024-02-01 14:06:00,SystemResetWarning,0824.8,5.00,000.00,023.5,022.7,000.0,031.9,025.2,11.9,0000.0,0002.53,0004.78,0002.27
2024-02-01 14:07:00,SystemResetWarning,0824.8,5.00,000.00,023.5,022.7,000.0,031.9,025.2,11.9,0000.0,0002.52,0004.79,0002.25
2024-02-01 14:08:00,SystemResetWarning,0824.8,5.00,000.00,023.5,022.7,000.0,031.9,025.2,11.9,0000.0,0002.48,0004.70,0002.22
2024-02-01 14:09:00,SystemResetWarning,0824.8,5.00,000.00,023.5,022.7,000.0,031.9,025.1,12.0,0000.0,0002.48,0004.57,0002.22
2024-02-01 14:10:00,SystemResetWarning,0824.8,5.00,000.00,023.5,022.7,000.0,031.9,025.2,12.0,0000.0,0002.48,0004.54,0002.24
2024-02-01 14:11:00,SystemResetWarning,0824.8,4.99,000.00,023.5,022.6,000.0,031.9,025.1,12.0,0000.0,0002.52,0003.82,0002.29
2024-02-01 14:12:00,SystemResetWarning,0824.8,5.00,000.00,023.4,022.6,000.0,031.9,025.1,12.1,0000.0,0002.56,0003.80,0002.31
2024-02-01 14:13:00,SystemResetWarning,0824.8,5.01,000.00,023.4,022.6,000.0,031.8,025.1,11.9,0000.0,0002.56,0003.80,0002.31
2024-02-01 14:14:00,SystemResetWarning,0824.8,5.01,000.00,023.4,022.6,000.0,031.8,025.1,12.0,0000.0,0002.53,0003.44,0002.29
2024-02-01 14:15:00,SystemResetWarning,0824.8,5.00,000.00,023.4,022.6,000.0,031.8,025.1,12.0,0000.0,0002.48,0003.07,0002.24
2024-02-01 14:16:00,SystemResetWarning,0824.8,5.00,000.00,023.4,022.6,000.0,031.8,025.0,11.9,0000.0,0002.37,0002.88,0002.17
2024-02-01 14:17:00,SystemResetWarning,0824.8,5.00,000.00,023.4,022.5,000.0,031.8,025.0,11.9,0000.0,0002.30,0002.78,0002.11
2024-02-01 14:18:00,SystemResetWarning,0824.9,5.00,000.00,023.4,022.5,000.0,031.8,025.0,12.0,0000.0,0002.24,0002.68,0002.08
2024-02-01 14:19:00,SystemResetWarning,0824.8,5.00,000.00,023.4,022.5,000.0,031.8,025.0,12.0,0000.0,0002.24,0002.69,0002.05
2024-02-01 14:20:00,SystemResetWarning,0824.8,4.99,000.00,023.3,022.5,000.0,031.7,025.0,12.0,0000.0,0002.23,0002.76,0002.03
2024-02-01 14:21:00,SystemResetWarning,0824.8,4.99,000.00,023.3,022.5,000.0,031.7,025.0,12.0,0000.0,0002.24,0002.83,0002.01
2024-02-01 14:22:00,SystemResetWarning,0824.8,4.99,000.00,023.3,022.5,000.0,031.7,025.0,12.1,0000.0,0002.27,0002.97,0002.00
2024-02-01 14:23:00,SystemResetWarning,0824.9,5.00,000.00,023.3,022.5,000.0,031.7,025.0,12.1,0000.0,0002.30,0003.06,0002.01
2024-02-01 14:24:00,SystemResetWarning,0824.9,5.01,000.00,023.3,022.5,000.0,031.7,025.0,12.1,0000.0,0002.31,0003.57,0002.01
2024-02-01 14:25:00,SystemResetWarning,0824.9,5.00,000.00,023.3,022.5,000.0,031.7,025.0,12.1,0000.0,0002.29,0003.67,0002.00
2024-02-01 14:26:00,SystemResetWarning,0824.9,4.99,000.00,023.3,022.5,000.0,031.7,025.0,12.1,0000.0,0002.27,0003.63,0001.99
2024-02-01 14:27:00,SystemResetWarning,0824.9,5.00,000.00,023.3,022.5,000.0,031.7,025.0,12.1,0000.0,0002.33,0003.83,0002.01
2024-02-01 14:28:00,SystemResetWarning,0824.9,5.01,000.00,023.3,022.5,000.0,031.7,025.0,12.1,0000.0,0002.35,0003.91,0002.01
2024-02-01 14:29:00,SystemResetWarning,0824.9,4.98,000.00,023.3,022.5,000.0,031.7,025.0,12.1,0000.0,0002.36,0003.92,0002.02
2024-02-01 14:30:00,SystemResetWarning,0824.9,5.00,000.00,023.3,022.5,000.0,031.7,025.0,12.1,0000.0,0002.35,0003.91,0002.02
2024-02-01 14:31:00,SystemResetWarning,0824.8,5.02,000.00,023.3,022.5,000.0,031.7,024.9,12.1,0000.0,0002.28,0003.70,0001.99
2024-02-01 14:32:00,SystemResetWarning,0824.9,5.00,000.00,023.3,022.5,000.0,031.7,024.9,12.2,0000.0,0002.24,0003.59,0001.97
2024-02-01 14:33:00,SystemResetWarning,0824.9,4.99,000.00,023.3,022.5,000.0,031.6,024.9,12.2,0000.0,0002.13,0003.32,0001.92
2024-02-01 14:34:00,SystemResetWarning,0824.9,4.99,000.00,023.2,022.5,000.0,031.6,024.9,12.2,0000.0,0002.03,0003.14,0001.85
2024-02-01 14:35:00,SystemResetWarning,0824.9,5.01,000.00,023.2,022.5,000.0,031.6,024.9,12.3,0000.0,0002.01,0002.71,0001.83
2024-02-01 14:36:00,SystemResetWarning,0824.9,5.01,000.00,023.2,022.5,000.0,031.6,024.9,12.2,0000.0,0002.00,0002.81,0001.82
2024-02-01 14:37:00,SystemResetWarning,0824.9,5.00,000.00,023.2,022.5,000.0,031.6,024.9,12.4,0000.0,0002.00,0002.84,0001.81
2024-02-01 14:38:00,SystemResetWarning,0824.9,5.00,000.00,023.2,022.5,000.0,031.6,024.9,12.3,0000.0,0001.93,0002.71,0001.77
2024-02-01 14:39:00,SystemResetWarning,0824.9,4.99,000.00,023.2,022.5,000.0,031.6,024.9,12.4,0000.0,0001.89,0002.60,0001.76
2024-02-01 14:40:00,SystemResetWarning,0824.9,4.99,000.00,023.2,022.5,000.0,031.6,024.9,12.4,0000.0,0001.89,0002.69,0001.73
2024-02-01 14:41:00,SystemResetWarning,0824.9,5.00,000.00,023.2,022.5,000.0,031.6,024.9,12.4,0000.0,0001.85,0002.64,0001.70
2024-02-01 14:42:00,SystemResetWarning,0824.9,5.00,000.00,023.2,022.5,000.0,031.6,024.9,12.4,0000.0,0001.86,0002.69,0001.70
2024-02-01 14:43:00,SystemResetWarning,0824.9,5.00,000.00,023.2,022.5,000.0,031.6,024.9,12.4,0000.0,0001.83,0002.65,0001.68
2024-02-01 14:44:00,SystemResetWarning,0824.9,5.01,000.00,023.2,022.5,000.0,031.6,024.9,12.5,0000.0,0001.82,0002.64,0001.66
2024-02-01 14:45:00,SystemResetWarning,0824.9,5.01,000.00,023.2,022.5,000.0,031.6,024.9,12.2,0000.0,0001.86,0002.72,0001.65
2024-02-01 14:46:00,SystemResetWarning,0824.9,5.00,000.00,023.2,022.5,000.0,031.6,024.9,12.3,0000.0,0001.85,0002.63,0001.64
2024-02-01 14:47:00,SystemResetWarning,0824.9,4.99,000.00,023.2,022.5,000.0,031.6,024.9,12.6,0000.0,0001.85,0002.41,0001.62
2024-02-01 14:48:00,SystemResetWarning,0824.9,4.99,000.00,023.2,022.5,000.0,031.6,024.9,12.2,0000.0,0001.89,0002.45,0001.65
2024-02-01 14:49:00,SystemResetWarning,0824.9,5.01,000.00,023.2,022.5,000.0,031.6,025.0,12.5,0000.0,0002.01,0003.04,0001.74
2024-02-01 14:50:00,SystemResetWarning,0824.9,5.01,000.00,023.3,022.5,000.0,031.6,025.0,12.2,0000.0,0002.11,0003.34,0001.82
2024-02-01 14:51:00,SystemResetWarning,0824.9,5.01,000.00,023.3,022.6,000.0,031.6,025.0,12.0,0000.0,0002.20,0003.38,0001.92
2024-02-01 14:52:00,SystemResetWarning,0824.9,5.00,000.00,023.3,022.6,000.0,031.6,025.0,12.0,0000.0,0002.31,0003.51,0002.02
2024-02-01 14:53:00,SystemResetWarning,0824.9,5.00,000.00,023.3,022.6,000.0,031.6,025.0,12.1,0000.0,0002.46,0004.35,0002.14
2024-02-01 14:54:00,SystemResetWarning,0824.9,4.99,000.00,023.3,022.6,000.0,031.6,025.0,12.0,0000.0,0002.65,0005.88,0002.30
2024-02-01 14:55:00,SystemResetWarning,0824.9,5.00,000.00,023.3,022.7,000.0,031.6,025.0,11.8,0000.0,0002.93,0006.29,0002.54
2024-02-01 14:56:00,SystemResetWarning,0824.9,5.00,000.00,023.3,022.7,000.0,031.6,025.0,11.7,0000.0,0003.19,0007.30,0002.84
2024-02-01 14:57:00,SystemResetWarning,0824.9,5.00,000.00,023.3,022.7,000.0,031.6,025.1,11.8,0000.0,0003.44,0007.77,0003.15
2024-02-01 14:58:00,SystemResetWarning,0824.9,5.00,000.00,023.3,022.7,000.0,031.6,025.1,11.8,0000.0,0003.63,0008.07,0003.29
2024-02-01 14:59:00,SystemResetWarning,0824.9,5.00,000.00,023.4,022.8,000.0,031.6,025.1,11.8,0000.0,0003.73,0008.53,0003.38
